FW7881 Weather Reports


Display with metric or nautical units.
time (UTC)temp
F
wind
direction
speed
MPH
gust
MPH
rain 1hr
in
rain 24hr
in
rain mn
in
humidity
%
barometer
mb
20260905053059 69 0 0.0 2.0 0.00 0.00 0.00 85 1015.5
20260905051558 70 1 0.0 1.0 0.00 0.00 0.00 85 1015.3
20260905044556 71 0 1.0 4.0 0.00 0.00 0.00 84 1015.0
20260905043121 71 33 0.0 2.0 0.00 0.00 0.00 83 1015.2
20260905041558 71 15 0.0 2.0 0.00 0.00 0.00 82 1015.1
20260905040117 72 43 0.0 3.0 0.00 0.00 0.00 82 1015.0
20260905034553 73 3 0.0 3.0 0.00 0.00 0.00 81 1015.0
20260905033054 73 41 2.0 5.0 0.00 0.00 0.00 80 1015.0
20260905031557 74 354 2.0 5.0 0.00 0.00 0.00 79 1014.9
20260905030053 75 347 1.0 4.0 0.00 0.00 0.00 78 1014.7
20260905024554 75 5 1.0 5.0 0.00 0.00 0.00 77 1014.6
20260905023105 76 2 1.0 6.0 0.00 0.00 0.00 76 1014.4
20260905021601 77 51 0.0 6.0 0.00 0.00 0.00 75 1014.1
20260905020055 78 1 1.0 5.0 0.00 0.00 0.00 75 1014.0
20260905014554 79 1 1.0 2.0 0.00 0.00 0.00 75 1013.9
20260905013058 79 40 0.0 2.0 0.00 0.00 0.00 74 1013.8
20260905011558 79 0 0.0 3.0 0.00 0.00 0.00 74 1013.8
20260905010058 80 356 1.0 2.0 0.00 0.00 0.00 74 1013.7
20260905004603 80 39 0.0 1.0 0.00 0.00 0.00 73 1013.5
20260905003053 81 0 0.0 2.0 0.00 0.00 0.00 71 1013.5
20260905001551 82 0 0.0 3.0 0.00 0.00 0.00 70 1013.3
20260905000058 83 35 0.0 2.0 0.00 0.00 0.00 69 1013.3
20260904234558 83 91 1.0 3.0 0.00 0.00 0.00 69 1013.2
20260904233053 84 56 1.0 3.0 0.00 0.00 0.00 69 1013.2
20260904231600 84 323 1.0 6.0 0.00 0.00 0.00 71 1013.2
20260904230108 84 347 1.0 6.0 0.00 0.00 0.00 71 1013.1
20260904224557 84 11 3.0 9.0 0.00 0.00 0.00 69 1013.0
20260904223058 84 339 2.0 4.0 0.00 0.00 0.00 70 1012.9
20260904221557 84 328 3.0 7.0 0.00 0.00 0.00 69 1012.7
20260904220114 84 22 1.0 8.0 0.00 0.00 0.00 71 1012.3
20260904214553 83 8 4.0 7.0 0.00 0.00 0.00 71 1012.3
20260904213054 83 39 3.0 7.0 0.00 0.00 0.00 72 1012.4
20260904211612 83 340 3.0 6.0 0.00 0.00 0.00 72 1012.4
20260904210056 83 11 3.0 6.0 0.00 0.00 0.00 73 1012.7
20260904204604 83 332 1.0 6.0 0.00 0.00 0.00 74 1012.6
20260904203055 82 15 1.0 8.0 0.00 0.00 0.00 75 1012.6
20260904201600 82 31 2.0 7.0 0.00 0.00 0.00 75 1012.6
20260904200057 82 0 2.0 5.0 0.00 0.00 0.00 75 1012.7
20260904194604 82 18 2.0 5.0 0.00 0.00 0.00 77 1012.7
20260904193110 81 331 2.0 9.0 0.00 0.00 0.00 77 1012.7
20260904191553 81 20 2.0 10.0 0.00 0.00 0.00 78 1012.8
20260904190059 80 8 2.0 7.0 0.00 0.00 0.00 79 1012.9
20260904184558 80 21 4.0 10.0 0.00 0.04 0.00 80 1012.8
20260904183106 80 41 4.0 8.0 0.00 0.04 0.00 79 1012.8
20260904181557 80 18 4.0 9.0 0.00 0.04 0.00 79 1012.8
20260904180122 80 322 5.0 10.0 0.00 0.04 0.00 79 1012.8
20260904174608 81 359 5.0 9.0 0.00 0.04 0.00 79 1012.5
20260904173052 80 53 6.0 11.0 0.00 0.04 0.00 80 1012.5
20260904171558 80 346 3.0 10.0 0.00 0.04 0.00 80 1012.4
20260904170059 80 356 6.0 10.0 0.00 0.04 0.00 80 1012.3
20260904164557 80 304 4.0 10.0 0.00 0.04 0.00 81 1012.3
20260904163053 81 6 5.0 9.0 0.00 0.04 0.00 79 1012.1
20260904161602 83 346 6.0 10.0 0.00 0.04 0.00 77 1011.9
20260904160056 84 335 2.0 5.0 0.00 0.04 0.00 77 1011.7
20260904154558 84 354 3.0 5.0 0.00 0.04 0.00 77 1011.6
20260904153056 83 31 2.0 5.0 0.00 0.04 0.00 77 1011.4
20260904151600 82 349 0.0 3.0 0.00 0.04 0.00 79 1011.3
20260904150100 82 293 1.0 3.0 0.00 0.04 0.00 79 1011.0
20260904144602 81 41 0.0 3.0 0.00 0.04 0.00 81 1011.0
20260904143100 80 0 0.0 2.0 0.00 0.04 0.00 83 1011.1
20260904141557 79 338 1.0 3.0 0.00 0.04 0.00 83 1011.1
20260904140100 77 20 0.0 3.0 0.00 0.04 0.00 86 1011.1
20260904134557 76 169 0.0 2.0 0.00 0.04 0.00 88 1011.2
20260904133112 75 10 0.0 1.0 0.00 0.04 0.00 89 1011.3
20260904131554 74 1 0.0 2.0 0.00 0.04 0.00 91 1011.0
20260904130054 73 7 0.0 1.0 0.00 0.04 0.00 92 1010.7
20260904124604 72 7 0.0 1.0 0.00 0.04 0.00 92 1010.6
20260904123054 72 7 0.0 2.0 0.00 0.04 0.00 93 1010.4
20260904121548 71 0 0.0 1.0 0.00 0.04 0.00 93 1010.2
20260904120110 71 1 0.0 2.0 0.00 0.04 0.00 92 1010.1
20260904114558 71 359 1.0 2.0 0.00 0.04 0.00 92 1010.1
20260904113058 72 0 0.0 1.0 0.00 0.04 0.00 92 1009.8
20260904111600 72 0 0.0 1.0 0.00 0.04 0.00 91 1009.7
20260904110105 72 0 0.0 1.0 0.00 0.04 0.00 91 1009.8
20260904104559 72 0 0.0 1.0 0.00 0.04 0.00 91 1009.9
20260904103057 72 0 0.0 1.0 0.00 0.04 0.00 91 1010.0
20260904101604 72 18 1.0 1.0 0.00 0.04 0.00 91 1010.1
20260904100057 72 20 0.0 2.0 0.00 0.04 0.00 92 1010.0
20260904094557 72 143 0.0 1.0 0.00 0.04 0.00 91 1009.8
20260904093053 73 0 0.0 0.0 0.00 0.04 0.00 91 1009.6
20260904091559 73 0 0.0 0.0 0.00 0.04 0.00 90 1009.4
20260904090049 74 0 0.0 0.0 0.00 0.04 0.00 90 1009.4
20260904084555 74 0 0.0 0.0 0.00 0.04 0.00 90 1009.3
20260904083055 74 0 0.0 0.0 0.00 0.04 0.00 89 1009.2
20260904081559 75 197 0.0 3.0 0.00 0.04 0.00 88 1009.2
20260904080104 75 0 0.0 1.0 0.00 0.04 0.00 89 1009.2
20260904074557 74 0 0.0 0.0 0.00 0.04 0.00 89 1009.2
20260904073102 75 0 0.0 1.0 0.00 0.04 0.00 88 1009.4
20260904071558 75 228 0.0 1.0 0.00 0.04 0.00 87 1009.3
20260904070059 76 0 0.0 0.0 0.00 0.04 0.00 86 1009.4
20260904064603 77 0 0.0 0.0 0.00 0.04 0.00 85 1009.5
20260904063106 77 0 0.0 0.0 0.00 0.04 0.00 85 1009.5
20260904061550 77 203 1.0 2.0 0.00 0.04 0.00 85 1009.4
20260904060116 77 196 0.0 5.0 0.00 0.04 0.00 85 1009.5
20260904054555 77 0 0.0 1.0 0.00 0.04 0.00 84 1009.5